Regional Weather Roundup
Issued by NWS Green Bay, WI

Home | Current Version | Previous Version | Graphics & Text | Print | Product List | Glossary Off
Versions: 1 2 3 4 5 6 7 8 9 10 11 12 13 14 15 16 17 18 19 20 21 22 23 24 25 26 27 28 29 30 31 32 33 34 35 36 37 38 39 40 41 42 43 44 45 46 47 48 49 50

000
ASUS43 KGRB 200000
RWRGRB

NORTH-CENTRAL AND NORTHEAST WISCONSIN REGIONAL WEATHER ROUNDUP
NATIONAL WEATHER SERVICE GREEN BAY WI
600 PM CST MON FEB 19 2018

WIZ005-009-010>012-018-019-200100-
NORTH CENTRAL WISCONSIN

CITY           SKY/WX    TMP DP  RH WIND       PRES   REMARKS
IRONWOOD       LGT SNOW  15  12  88 E10       29.99F FOG     WCI   2
MANITOWISH WTR NOT AVBL
ARBOR VITAE    NOT AVBL
EAGLE RIVER    FLURRIES  18  13  82 NE12      29.90F WCI   5
LAND O LAKES   NOT AVBL
RHINELANDER    CLOUDY    19  17  92 NE12G23   29.88S FOG     WCI   7
PHILLIPS       NOT AVBL
ANTIGO         NOT AVBL
TOMAHAWK       NOT AVBL
MERRILL        NOT AVBL
$$

WIZ013-073-200100-
NORTHEAST WISCONSIN

CITY           SKY/WX    TMP DP  RH WIND       PRES   REMARKS
IRON MOUNTAIN  CLOUDY    23  19  85 NE8       29.92F FOG
MARINETTE      FLURRIES  28  26  92 NE12      29.95R
$$

WIZ017-030-035>037-045-200100-
CENTRAL WISCONSIN

CITY           SKY/WX    TMP DP  RH WIND       PRES   REMARKS
MEDFORD        NOT AVBL
WAUSAU         FRZ RAIN  25  22  88 E14       29.84R
MOSINEE        NOT AVBL
MARSHFIELD     CLOUDY    27  25  92 E17G23    29.81R FOG
WISC RAPIDS    CLOUDY    27  23  85 E16G23    29.83S
STEVENS POINT  NOT AVBL
WAUPACA        NOT AVBL
SHAWANO        MIX PCPN  29  26  89 NE17      29.89F
CLINTONVILLE   CLOUDY    27  24  89 NE15G21   29.89S
WAUTOMA        CLOUDY    29  27  92 E15       29.83S
$$

WIZ038-039-048-051-200100-
FOX VALLEY

CITY           SKY/WX    TMP DP  RH WIND       PRES   REMARKS
NWS GREEN BAY  FRZ RAIN  28  25  88 NE23G33   29.89F FOG
APPLETON       CLOUDY    27  25  93 NE18G28   29.84F FOG
OSHKOSH        CLOUDY    28  27  96 NE18      29.85S FOG
FOND DU LAC    LGT RAIN  33  30  88 NE12      29.85R FOG
$$

WIZ022-050-052-200100-
EAST CENTRAL WISCONSIN

CITY           SKY/WX    TMP DP  RH WIND       PRES   REMARKS
EPHRAIM        NOT AVBL
WASHINGTON ISL NOT AVBL
STURGEON BAY   LGT SNOW  29  28  96 N14       29.93R FOG
MANITOWOC      MIX PCPN  33  32  96 NE12G20   29.88S FOG
SHEBOYGAN      LGT RAIN  33  33 100 NE15      29.86R FOG
$$

LMZ563-521-522-541>543-200100-
LAKESHORE

STATION/POSITION TIME  TEMP    WIND        PRES    VSBY  WAVE
                       AIR SEA DIR/SP/G                  HT/PER
                 (UTC) (F)     (DEG/KT/KT) (MB)    (MI)  (FT/S)
SHEBOYGAN LKSHOR 2300   35      30/ 18/ 20 1011.0F
KEWAUNEE LKSHORE 2330   33      40/ 15/ 22 1011.4R
NORTHPORT PIER   2343   28                 1013.9F
MENOMINEE LKSHOR 2330   27     360/ 27/ 40 1013.6R
$$



USA.gov is the U.S. government's official web portal to all federal, state and local government web resources and services.